Flag for Poland Weather past 2 weeks in Rybnik, Poland

Now
68 °F

Sunny.


Feels Like: 68 °F
Forecast: 50 / 62 °F
Wind: 5 mph from Southwest

Location: Katowice Airport

Current Time: Aug 23, 2014 at 8:06:58 PM

Latest Report: Aug 23, 2014 at 7:30 PM


Visibility: 10 mi

Pressure: 29.92 "Hg

Humidity: 56%

Dew point: 52 °F

Location of RybnikLocation

Historic Weather in Rybnik — Graph

°F

Rybnik temperature yesterday

Maximum temperature yesterday: 68 °F (at 1:30 PM)
Minimum temperature yesterday: 43 °F (at 4:30 AM)
Average temperature yesterday: 58 °F

Past Weeks' High & Low Weather Summary

 TemperatureHumidityPressure
High84 °F (Aug 9, 3:00 PM)100% (Aug 9, 2:30 AM)30.07 "Hg (Aug 9, 2:30 AM)
Low43 °F (Aug 22, 4:30 AM)37% (Aug 9, 3:00 PM)29.65 "Hg (Aug 13, 9:00 PM)
Average63 °F76%29.93 "Hg
* Reported Aug 8 7:00 PM — Aug 23 7:00 PM, Rybnik, Weather by CustomWeather, © 2014

Note: Actual official high and low records may vary slightly from our data, if they occured in-between our weather recording intervals... More about our weather records

Advertising

Rybnik weather history for previous 24 hours

 ConditionsComfort  
Time TempWeatherWind HumidityBarometerVisibility
7:00 PM
Aug 23
68 °FSunny.3 mph56%29.92 "Hg10 mi
6:30 PM68 °FPassing clouds.5 mph53%29.92 "HgN/A
6:00 PM70 °FSunny.6 mph50%29.92 "Hg10 mi
5:30 PM70 °FPassing clouds.7 mph43%29.92 "HgN/A
5:00 PM70 °FSunny.7 mph50%29.92 "Hg10 mi
4:30 PM70 °FPassing clouds.6 mph46%29.92 "HgN/A
4:00 PM70 °FSunny.8 mph53%29.95 "Hg10 mi
3:30 PM70 °FPassing clouds.7 mph53%29.95 "HgN/A
3:00 PM70 °FPassing clouds.9 mph53%29.95 "HgN/A
2:30 PM72 °FPassing clouds.10 mph44%29.95 "HgN/A
2:00 PM70 °FPassing clouds.10 mph46%29.95 "HgN/A
1:30 PM70 °FPassing clouds.10 mph50%29.95 "HgN/A
1:00 PM68 °FPassing clouds.10 mph53%29.98 "HgN/A
12:30 PM70 °FPassing clouds.10 mph50%29.98 "HgN/A
12:00 PM68 °FPassing clouds.8 mph60%29.98 "HgN/A
11:30 AM66 °FPassing clouds.6 mph64%29.98 "HgN/A
11:00 AM66 °FPassing clouds.7 mph68%29.98 "HgN/A
10:30 AM64 °FPassing clouds.10 mph73%29.98 "HgN/A
10:00 AM64 °FScattered clouds.10 mph78%29.98 "HgN/A
9:30 AM63 °FPassing clouds.9 mph83%29.98 "HgN/A
9:00 AM61 °FPassing clouds.8 mph83%29.98 "HgN/A
8:30 AM59 °FPassing clouds.7 mph88%29.98 "HgN/A
8:00 AM59 °FPassing clouds.5 mph88%29.98 "HgN/A
7:30 AM57 °FPassing clouds.3 mph88%29.98 "HgN/A
7:00 AM55 °FPassing clouds.3 mph94%29.98 "HgN/A
6:30 AM55 °FPassing clouds.6 mph94%29.98 "HgN/A
6:00 AM55 °FPassing clouds.6 mph94%29.98 "HgN/A
5:30 AM55 °FSprinkles. Passing clouds.6 mph94%29.98 "Hg5 mi
5:00 AM55 °FRain showers. Passing clouds.13 mph94%29.98 "Hg3 mi
4:30 AM57 °FSprinkles. Passing clouds.8 mph88%29.98 "HgN/A
4:00 AM55 °FSprinkles. Passing clouds.1 mph94%29.98 "HgN/A
3:30 AM54 °FClear.2 mph88%29.98 "Hg10 mi
3:00 AM54 °FClear.3 mph88%29.98 "Hg10 mi
2:30 AM55 °FClear.5 mph88%29.98 "Hg10 mi
2:00 AM55 °FClear.5 mph88%29.98 "Hg10 mi
1:30 AM55 °FClear.3 mph82%29.98 "Hg10 mi
1:00 AM55 °FClear.3 mph82%29.98 "Hg10 mi
12:30 AM57 °FPassing clouds.3 mph82%29.98 "HgN/A
12:00 AM59 °FPassing clouds.3 mph77%29.98 "HgN/A
11:30 PM
Aug 22
59 °FPassing clouds.3 mph77%29.98 "HgN/A
11:00 PM61 °FPassing clouds.3 mph72%30.01 "HgN/A
10:30 PM61 °FPassing clouds.5 mph77%29.98 "HgN/A
10:00 PM61 °FClear.5 mph72%29.98 "Hg10 mi
9:30 PM61 °FClear.3 mph77%30.01 "Hg10 mi
9:00 PM61 °FClear.2 mph77%30.01 "Hg10 mi
8:30 PM61 °FPassing clouds.5 mph72%30.01 "HgN/A
8:00 PM61 °FPassing clouds.3 mph72%30.01 "HgN/A
Weather by CustomWeather, © 2014

See weather overviewHow to use our weather pages